EN

Hourly Weather Kyzylivka

Today, 23 July, Friday

Time Temperature Precipitation Wind Pressure Humidity
00:00 +19°C° 0 mm 3 mps 726 mmHg 81%
01:00 +18°C° 0 mm 3 mps 726 mmHg 82%
02:00 +18°C° 0 mm 3 mps 726 mmHg 82%
03:00 +18°C° 0 mm 2 mps 726 mmHg 83%
04:00 +17°C° 0 mm 2 mps 726 mmHg 83%
05:00 +17°C° 0 mm 2 mps 726 mmHg 83%
06:00 +18°C° 0 mm 2 mps 727 mmHg 77%
07:00 +20°C° 0 mm 3 mps 727 mmHg 71%
08:00 +21°C° 0 mm 3 mps 727 mmHg 63%
09:00 +24°C° 0 mm 3 mps 727 mmHg 57%
10:00 +25°C° 0 mm 4 mps 727 mmHg 50%
11:00 +26°C° 0 mm 4 mps 727 mmHg 43%
12:00 +26°C° 0 mm 4 mps 727 mmHg 42%
13:00 +26°C° 0 mm 4 mps 727 mmHg 41%
14:00 +26°C° 0 mm 4 mps 727 mmHg 40%
15:00 +26°C° 0 mm 4 mps 727 mmHg 41%
16:00 +26°C° 0 mm 4 mps 727 mmHg 42%
17:00 +26°C° 0 mm 4 mps 728 mmHg 42%
18:00 +24°C° 0 mm 3 mps 728 mmHg 46%
19:00 +22°C° 0 mm 3 mps 728 mmHg 49%
20:00 +21°C° 0 mm 2 mps 728 mmHg 52%
21:00 +21°C° 0 mm 2 mps 728 mmHg 53%
22:00 +20°C° 0 mm 2 mps 729 mmHg 54%
23:00 +19°C° 0 mm 2 mps 729 mmHg 55%

Tomorrow, 24 July, Saturday

Time Temperature Precipitation Wind Pressure Humidity
00:00 +19°C° 0 mm 2 mps 729 mmHg 57%
01:00 +19°C° 0 mm 2 mps 729 mmHg 58%
02:00 +18°C° 0 mm 2 mps 729 mmHg 59%
03:00 +18°C° 0 mm 2 mps 729 mmHg 61%
04:00 +18°C° 0 mm 2 mps 729 mmHg 63%
05:00 +17°C° 0 mm 2 mps 729 mmHg 65%
06:00 +19°C° 0 mm 2 mps 729 mmHg 58%
07:00 +21°C° 0 mm 2 mps 729 mmHg 52%
08:00 +24°C° 0 mm 3 mps 729 mmHg 45%
09:00 +25°C° 0 mm 3 mps 729 mmHg 42%
10:00 +26°C° 0 mm 3 mps 729 mmHg 39%
11:00 +27°C° 0 mm 3 mps 730 mmHg 35%
12:00 +28°C° 0 mm 3 mps 729 mmHg 35%
13:00 +28°C° 0 mm 4 mps 729 mmHg 34%
14:00 +29°C° 0 mm 4 mps 729 mmHg 34%
15:00 +28°C° 0 mm 4 mps 729 mmHg 35%
16:00 +28°C° 0 mm 4 mps 729 mmHg 37%
17:00 +27°C° 0 mm 4 mps 730 mmHg 39%
18:00 +25°C° 0 mm 3 mps 730 mmHg 45%
19:00 +22°C° 0 mm 3 mps 730 mmHg 51%
20:00 +20°C° 0 mm 2 mps 730 mmHg 57%
21:00 +20°C° 0 mm 2 mps 730 mmHg 57%
22:00 +19°C° 0 mm 2 mps 730 mmHg 56%
23:00 +19°C° 0 mm 2 mps 730 mmHg 56%

Day after tomorrow, 25 July, Sunday

Time Temperature Precipitation Wind Pressure Humidity
00:00 +18°C° 0 mm 2 mps 730 mmHg 57%
01:00 +18°C° 0 mm 2 mps 730 mmHg 58%
02:00 +18°C° 0 mm 2 mps 730 mmHg 59%
03:00 +18°C° 0 mm 2 mps 730 mmHg 62%
04:00 +18°C° 0 mm 2 mps 730 mmHg 64%
05:00 +18°C° 0 mm 2 mps 730 mmHg 66%
06:00 +20°C° 0 mm 3 mps 731 mmHg 61%
07:00 +23°C° 0 mm 4 mps 731 mmHg 55%
08:00 +26°C° 0 mm 4 mps 731 mmHg 49%
09:00 +28°C° 0 mm 4 mps 731 mmHg 45%
10:00 +29°C° 0 mm 4 mps 731 mmHg 41%
11:00 +30°C° 0 mm 4 mps 731 mmHg 37%
12:00 +30°C° 0 mm 4 mps 731 mmHg 37%
13:00 +30°C° 0 mm 4 mps 731 mmHg 38%
14:00 +30°C° 0 mm 4 mps 731 mmHg 38%
15:00 +29°C° 0 mm 4 mps 731 mmHg 39%
16:00 +29°C° 0 mm 4 mps 731 mmHg 40%
17:00 +29°C° 0 mm 4 mps 731 mmHg 41%
18:00 +26°C° 0 mm 3 mps 731 mmHg 46%
19:00 +24°C° 0 mm 3 mps 731 mmHg 51%
20:00 +21°C° 0 mm 2 mps 732 mmHg 57%
21:00 +21°C° 0 mm 2 mps 732 mmHg 59%
22:00 +20°C° 0 mm 3 mps 731 mmHg 62%
23:00 +20°C° 0 mm 3 mps 731 mmHg 65%

26 July, Monday

Time Temperature Precipitation Wind Pressure Humidity
00:00 +20°C° 0 mm 3 mps 731 mmHg 67%
01:00 +20°C° 0 mm 3 mps 731 mmHg 68%
02:00 +20°C° 0 mm 3 mps 731 mmHg 70%
03:00 +20°C° 0 mm 3 mps 731 mmHg 72%
04:00 +20°C° 0 mm 3 mps 731 mmHg 74%
05:00 +20°C° 0 mm 3 mps 731 mmHg 76%
06:00 +22°C° 0 mm 3 mps 731 mmHg 67%
07:00 +26°C° 0 mm 4 mps 731 mmHg 59%
08:00 +28°C° 0 mm 4 mps 732 mmHg 50%
09:00 +29°C° 0 mm 5 mps 732 mmHg 47%
10:00 +30°C° 0 mm 5 mps 732 mmHg 43%
11:00 +32°C° 0 mm 5 mps 732 mmHg 40%
12:00 +30°C° 0 mm 5 mps 732 mmHg 41%
13:00 +30°C° 0 mm 5 mps 732 mmHg 42%
14:00 +30°C° 0 mm 6 mps 732 mmHg 43%
15:00 +29°C° 0 mm 5 mps 732 mmHg 43%
16:00 +29°C° 0 mm 5 mps 732 mmHg 42%
17:00 +29°C° 0 mm 5 mps 732 mmHg 41%
18:00 +27°C° 0 mm 5 mps 732 mmHg 49%
19:00 +25°C° 0 mm 4 mps 732 mmHg 56%
20:00 +22°C° 0 mm 3 mps 732 mmHg 64%
21:00 +22°C° 0 mm 3 mps 732 mmHg 68%
22:00 +21°C° 0 mm 3 mps 732 mmHg 72%
23:00 +20°C° 0 mm 3 mps 732 mmHg 77%

27 July, Tuesday

Time Temperature Precipitation Wind Pressure Humidity
00:00 +20°C° 0 mm 2 mps 732 mmHg 79%
01:00 +20°C° 0 mm 2 mps 731 mmHg 81%
02:00 +20°C° 0 mm 2 mps 731 mmHg 84%
03:00 +20°C° 0 mm 2 mps 731 mmHg 84%
04:00 +20°C° 0 mm 2 mps 732 mmHg 85%
05:00 +20°C° 0 mm 2 mps 732 mmHg 86%
06:00 +22°C° 0 mm 3 mps 732 mmHg 76%
07:00 +25°C° 0 mm 4 mps 732 mmHg 65%
08:00 +27°C° 0 mm 4 mps 732 mmHg 55%
09:00 +29°C° 0 mm 5 mps 732 mmHg 51%
10:00 +30°C° 0 mm 5 mps 732 mmHg 46%
11:00 +32°C° 0 mm 5 mps 733 mmHg 42%
12:00 +32°C° 0 mm 5 mps 732 mmHg 41%
13:00 +32°C° 0 mm 5 mps 732 mmHg 40%
14:00 +32°C° 0 mm 5 mps 732 mmHg 39%
15:00 +32°C° 0 mm 5 mps 732 mmHg 41%
16:00 +30°C° 0 mm 5 mps 732 mmHg 42%
17:00 +29°C° 0 mm 5 mps 733 mmHg 44%
18:00 +27°C° 0 mm 4 mps 733 mmHg 49%
19:00 +25°C° 0 mm 3 mps 733 mmHg 54%
20:00 +24°C° 0 mm 2 mps 733 mmHg 60%
21:00 +23°C° 0 mm 2 mps 733 mmHg 61%
22:00 +23°C° 0 mm 2 mps 733 mmHg 62%
23:00 +21°C° 0 mm 2 mps 733 mmHg 63%

28 July, Wednesday

Time Temperature Precipitation Wind Pressure Humidity
00:00 +21°C° 0 mm 2 mps 733 mmHg 65%
01:00 +21°C° 0 mm 2 mps 733 mmHg 68%
02:00 +21°C° 0 mm 2 mps 733 mmHg 70%
03:00 +21°C° 0 mm 2 mps 733 mmHg 70%
04:00 +20°C° 0 mm 2 mps 733 mmHg 70%
05:00 +20°C° 0 mm 2 mps 733 mmHg 69%
06:00 +24°C° 0 mm 2 mps 733 mmHg 59%
07:00 +26°C° 0 mm 3 mps 733 mmHg 49%
08:00 +28°C° 0 mm 3 mps 733 mmHg 38%
09:00 +29°C° 0 mm 3 mps 733 mmHg 37%
10:00 +30°C° 0 mm 3 mps 733 mmHg 35%
11:00 +31°C° 0 mm 3 mps 733 mmHg 33%
12:00 +31°C° 0 mm 3 mps 733 mmHg 33%
13:00 +33°C° 0 mm 4 mps 733 mmHg 33%
14:00 +33°C° 0 mm 4 mps 733 mmHg 32%
15:00 +31°C° 0 mm 3 mps 733 mmHg 35%
16:00 +30°C° 0 mm 3 mps 733 mmHg 38%
17:00 +29°C° 0 mm 3 mps 733 mmHg 40%
18:00 +27°C° 0 mm 3 mps 733 mmHg 49%
19:00 +25°C° 0 mm 2 mps 733 mmHg 57%
20:00 +23°C° 0 mm 1 mps 733 mmHg 66%
21:00 +22°C° 0 mm 1 mps 733 mmHg 64%
22:00 +22°C° 0 mm 1 mps 732 mmHg 62%
23:00 +22°C° 0 mm 1 mps 732 mmHg 60%
Show more